User: anonymous   Login
Location: *
(51.5000°N, 0.1100°W)
Time: 17:40:35
(UTC+00:00)
Language:

Meteor 2-20 - Orbit

View from above orbital plane
View from above orbital plane
View from above satellite
View from above satellite

Ground track
Ground track

The orbit data is extracted from the following two-line orbital elements,

1 20826U 90086A   24200.56396680  .00000105  00000-0  80272-4 0  9991
2 20826  82.5239  34.4116 0013295 180.1643 179.9515 13.84362247707844
Epoch (UTC): 18 July 2024 13:32:06
Eccentricity: 0.0013295
inclination: 82.5239°
perigee height: 939 km
apogee height: 958 km
right ascension of ascending node: 34.4116°
argument of perigee: 180.1643°
revolutions per day: 13.84362247
mean anomaly at epoch: 179.9515°
orbit number at epoch: 70784

The dashed part of the orbit path shows where the satellite is in the earth's shadow,  

DLR